| time (UTC) | temp C | wind direction | speed KPH | gust KPH | rain 1hr cm | rain 24hr cm | rain mn cm | humidity % | barometer mb |
| 20260502130555 | 3 | 325 | 4.8 | 9.7 | 0.00 | 0.00 | 0.00 | 73 | 1018.6 |
| 20260502123532 | 2 | 322 | 4.8 | 16.1 | 0.00 | 0.00 | 0.00 | 81 | 1018.5 |
| 20260502123036 | 3 | 340 | 4.8 | 8.0 | 0.00 | 0.00 | 0.00 | 81 | 1018.5 |
| 20260502122533 | 3 | 15 | 1.6 | 8.0 | 0.00 | 0.00 | 0.00 | 81 | 1018.5 |
| 20260502122315 | 2 | 298 | 1.6 | 6.4 | 0.00 | 0.00 | 0.00 | 82 | 1018.6 |
| 20260502121531 | 2 | 298 | 1.6 | 8.0 | 0.00 | 0.00 | 0.00 | 83 | 1018.4 |
| 20260502121032 | 2 | 298 | 1.6 | 8.0 | 0.00 | 0.00 | 0.00 | 83 | 1018.5 |
| 20260502120533 | 1 | 298 | 1.6 | 8.0 | 0.00 | 0.00 | 0.00 | 83 | 1018.4 |
| 20260502115532 | 1 | 329 | 1.6 | 8.0 | 0.00 | 0.00 | 0.00 | 83 | 1018.4 |
| 20260502115031 | 1 | 318 | 1.6 | 6.4 | 0.00 | 0.00 | 0.00 | 83 | 1018.4 |
| 20260502114529 | 1 | 335 | 1.6 | 4.8 | 0.00 | 0.00 | 0.00 | 83 | 1018.3 |
| 20260502114031 | 1 | 335 | 1.6 | 4.8 | 0.00 | 0.00 | 0.00 | 83 | 1018.4 |
| 20260502113530 | 1 | 335 | 1.6 | 4.8 | 0.00 | 0.00 | 0.00 | 84 | 1018.3 |
| 20260502113029 | 1 | 335 | 0.0 | 6.4 | 0.00 | 0.00 | 0.00 | 85 | 1018.2 |
| 20260502112528 | 0 | 335 | 1.6 | 8.0 | 0.00 | 0.00 | 0.00 | 87 | 1018.2 |
| 20260502112106 | 0 | 316 | 0.0 | 8.0 | 0.00 | 0.00 | 0.00 | 88 | 1018.2 |
| 20260502112056 | 0 | 306 | 1.6 | 8.0 | 0.00 | 0.00 | 0.00 | 88 | 1018.2 |
| 20260502111328 | 0 | 306 | 0.0 | 0.0 | 0.00 | 0.00 | 0.00 | 88 | 1018.2 |
| 20260502110529 | 0 | 306 | 0.0 | 0.0 | 0.00 | 0.00 | 0.00 | 88 | 1018.2 |
| 20260502110028 | 0 | 306 | 0.0 | 0.0 | 0.00 | 0.00 | 0.00 | 88 | 1018.1 |
| 20260502105807 | 0 | 306 | 0.0 | 0.0 | 0.00 | 0.00 | 0.00 | 89 | 1018.1 |
| 20260502105030 | 0 | 306 | 0.0 | 0.0 | 0.00 | 0.00 | 0.00 | 88 | 1018.1 |
| 20260502104811 | 0 | 306 | 0.0 | 0.0 | 0.00 | 0.00 | 0.00 | 88 | 1018.1 |
| 20260502104028 | 0 | 306 | 0.0 | 0.0 | 0.00 | 0.00 | 0.00 | 88 | 1018.1 |
| 20260502103529 | 0 | 306 | 0.0 | 0.0 | 0.00 | 0.00 | 0.00 | 87 | 1018.1 |
| 20260502103312 | 0 | 306 | 0.0 | 0.0 | 0.00 | 0.00 | 0.00 | 87 | 1018.0 |
| 20260502102532 | 0 | 306 | 0.0 | 0.0 | 0.00 | 0.00 | 0.00 | 87 | 1018.0 |
| 20260502102319 | 0 | 306 | 0.0 | 0.0 | 0.00 | 0.00 | 0.00 | 87 | 1018.0 |
| 20260502101812 | 0 | 306 | 0.0 | 0.0 | 0.00 | 0.00 | 0.00 | 87 | 1018.0 |
| 20260502101029 | 0 | 306 | 0.0 | 0.0 | 0.00 | 0.00 | 0.00 | 86 | 1018.0 |
| 20260502100530 | 0 | 306 | 0.0 | 0.0 | 0.00 | 0.00 | 0.00 | 84 | 1017.9 |
| 20260502100310 | 0 | 306 | 0.0 | 0.0 | 0.00 | 0.00 | 0.00 | 84 | 1017.8 |
| 20260502091527 | 1 | 306 | 0.0 | 0.0 | 0.00 | 0.00 | 0.00 | 80 | 1017.8 |
| 20260502091029 | 1 | 306 | 0.0 | 0.0 | 0.00 | 0.00 | 0.00 | 79 | 1017.8 |
| 20260502090525 | 1 | 306 | 0.0 | 0.0 | 0.00 | 0.00 | 0.00 | 79 | 1017.7 |
| 20260502071505 | 1 | 307 | 0.0 | 0.0 | 0.00 | 0.00 | 0.00 | 77 | 1017.6 |
| 20260502071002 | 1 | 307 | 0.0 | 0.0 | 0.00 | 0.00 | 0.00 | 78 | 1017.6 |
| 20260502070758 | 1 | 307 | 0.0 | 0.0 | 0.00 | 0.00 | 0.00 | 80 | 1017.7 |
| 20260502070002 | 1 | 307 | 0.0 | 0.0 | 0.00 | 0.00 | 0.00 | 80 | 1017.6 |
| 20260502065500 | 1 | 307 | 0.0 | 0.0 | 0.00 | 0.00 | 0.00 | 81 | 1017.6 |
| 20260502065001 | 1 | 307 | 0.0 | 0.0 | 0.00 | 0.00 | 0.00 | 81 | 1017.7 |
| 20260502064502 | 1 | 307 | 0.0 | 0.0 | 0.00 | 0.00 | 0.00 | 80 | 1017.7 |
| 20260502064001 | 1 | 307 | 0.0 | 0.0 | 0.00 | 0.00 | 0.00 | 78 | 1017.7 |
| 20260502063502 | 1 | 307 | 0.0 | 0.0 | 0.00 | 0.00 | 0.00 | 78 | 1017.7 |
| 20260502063001 | 1 | 307 | 0.0 | 0.0 | 0.00 | 0.00 | 0.00 | 78 | 1017.7 |
| 20260502062502 | 1 | 307 | 0.0 | 0.0 | 0.00 | 0.00 | 0.00 | 79 | 1017.7 |
| 20260502062002 | 1 | 307 | 0.0 | 0.0 | 0.00 | 0.00 | 0.00 | 80 | 1017.7 |
| 20260502061501 | 1 | 307 | 0.0 | 0.0 | 0.00 | 0.00 | 0.00 | 78 | 1017.9 |
| 20260502061000 | 1 | 307 | 0.0 | 0.0 | 0.00 | 0.00 | 0.00 | 80 | 1017.9 |
| 20260502060501 | 1 | 307 | 0.0 | 0.0 | 0.00 | 0.00 | 0.00 | 80 | 1017.9 |
| 20260502060002 | 1 | 307 | 0.0 | 0.0 | 0.00 | 0.00 | 0.00 | 80 | 1017.9 |
| 20260502055458 | 1 | 307 | 0.0 | 0.0 | 0.00 | 0.00 | 0.00 | 78 | 1017.9 |
| 20260502054958 | 1 | 307 | 0.0 | 0.0 | 0.00 | 0.00 | 0.00 | 78 | 1017.9 |
| 20260502054458 | 1 | 307 | 0.0 | 0.0 | 0.00 | 0.00 | 0.00 | 79 | 1017.9 |
| 20260502054000 | 1 | 307 | 0.0 | 0.0 | 0.00 | 0.00 | 0.00 | 78 | 1017.9 |
| 20260502053459 | 1 | 307 | 0.0 | 0.0 | 0.00 | 0.00 | 0.00 | 76 | 1017.8 |
| 20260502052957 | 1 | 307 | 0.0 | 0.0 | 0.00 | 0.00 | 0.00 | 78 | 1018.0 |
| 20260502052458 | 1 | 307 | 0.0 | 0.0 | 0.00 | 0.00 | 0.00 | 77 | 1017.9 |
| 20260502052000 | 1 | 307 | 0.0 | 0.0 | 0.00 | 0.00 | 0.00 | 76 | 1017.9 |
| 20260502051458 | 1 | 307 | 0.0 | 0.0 | 0.00 | 0.00 | 0.00 | 76 | 1017.8 |
| 20260502051242 | 1 | 307 | 0.0 | 0.0 | 0.00 | 0.00 | 0.00 | 77 | 1017.9 |
| 20260502050742 | 1 | 307 | 0.0 | 0.0 | 0.00 | 0.00 | 0.00 | 77 | 1017.9 |
| 20260502045959 | 1 | 307 | 0.0 | 0.0 | 0.00 | 0.00 | 0.00 | 75 | 1017.8 |
| 20260502045454 | 1 | 307 | 0.0 | 0.0 | 0.00 | 0.00 | 0.00 | 75 | 1017.9 |
| 20260502045243 | 1 | 307 | 0.0 | 0.0 | 0.00 | 0.00 | 0.00 | 75 | 1017.9 |
| 20260502044458 | 1 | 307 | 0.0 | 0.0 | 0.00 | 0.00 | 0.00 | 74 | 1017.8 |
| 20260502043955 | 1 | 307 | 0.0 | 0.0 | 0.00 | 0.00 | 0.00 | 73 | 1017.7 |
| 20260502043455 | 1 | 307 | 0.0 | 0.0 | 0.00 | 0.00 | 0.00 | 74 | 1017.7 |
| 20260502042951 | 1 | 307 | 0.0 | 0.0 | 0.00 | 0.00 | 0.00 | 74 | 1017.7 |
| 20260502042450 | 1 | 307 | 0.0 | 0.0 | 0.00 | 0.00 | 0.00 | 75 | 1017.7 |
| 20260502041951 | 1 | 307 | 0.0 | 0.0 | 0.00 | 0.00 | 0.00 | 75 | 1017.7 |
| 20260502041451 | 1 | 307 | 0.0 | 0.0 | 0.00 | 0.00 | 0.00 | 73 | 1017.6 |
| 20260502040953 | 1 | 307 | 0.0 | 0.0 | 0.00 | 0.00 | 0.00 | 74 | 1017.7 |
| 20260502040739 | 1 | 307 | 0.0 | 0.0 | 0.00 | 0.00 | 0.00 | 71 | 1017.6 |
| 20260502035951 | 1 | 307 | 0.0 | 0.0 | 0.00 | 0.00 | 0.00 | 71 | 1017.5 |
| 20260502035449 | 1 | 307 | 0.0 | 0.0 | 0.00 | 0.00 | 0.00 | 72 | 1017.5 |
| 20260502034953 | 1 | 307 | 0.0 | 0.0 | 0.00 | 0.00 | 0.00 | 72 | 1017.5 |
| 20260502034447 | 1 | 307 | 0.0 | 4.8 | 0.00 | 0.00 | 0.00 | 71 | 1017.6 |
| 20260502033945 | 1 | 307 | 0.0 | 4.8 | 0.00 | 0.00 | 0.00 | 70 | 1017.5 |
| 20260502033732 | 1 | 307 | 0.0 | 4.8 | 0.00 | 0.00 | 0.00 | 70 | 1017.5 |
| 20260502032946 | 1 | 307 | 0.0 | 8.0 | 0.00 | 0.00 | 0.00 | 70 | 1017.5 |
| 20260502032446 | 2 | 307 | 0.0 | 8.0 | 0.00 | 0.00 | 0.00 | 68 | 1017.5 |
| 20260502031946 | 2 | 293 | 0.0 | 0.0 | 0.00 | 0.00 | 0.00 | 67 | 1017.5 |
| 20260502031449 | 2 | 293 | 0.0 | 0.0 | 0.00 | 0.00 | 0.00 | 67 | 1017.4 |
| 20260502030944 | 2 | 293 | 0.0 | 9.7 | 0.00 | 0.00 | 0.00 | 66 | 1017.4 |
| 20260502030446 | 2 | 293 | 1.6 | 9.7 | 0.00 | 0.00 | 0.00 | 66 | 1017.4 |
| 20260502030234 | 2 | 311 | 0.0 | 4.8 | 0.00 | 0.00 | 0.00 | 66 | 1017.4 |
| 20260502025445 | 2 | 311 | 0.0 | 4.8 | 0.00 | 0.00 | 0.00 | 66 | 1017.3 |
| 20260502024944 | 2 | 311 | 0.0 | 4.8 | 0.00 | 0.00 | 0.00 | 65 | 1017.3 |
| 20260502024733 | 2 | 311 | 1.6 | 4.8 | 0.00 | 0.00 | 0.00 | 65 | 1017.2 |
| 20260502023943 | 2 | 311 | 0.0 | 6.4 | 0.00 | 0.00 | 0.00 | 65 | 1017.2 |
| 20260502023447 | 2 | 311 | 1.6 | 8.0 | 0.00 | 0.00 | 0.00 | 65 | 1017.3 |
| 20260502022947 | 2 | 1 | 1.6 | 8.0 | 0.00 | 0.00 | 0.00 | 65 | 1017.2 |
| 20260502022446 | 2 | 298 | 1.6 | 4.8 | 0.00 | 0.00 | 0.00 | 65 | 1017.3 |
| 20260502021948 | 2 | 282 | 0.0 | 4.8 | 0.00 | 0.00 | 0.00 | 66 | 1017.3 |
| 20260502021440 | 2 | 282 | 0.0 | 4.8 | 0.00 | 0.00 | 0.00 | 64 | 1017.2 |
| 20260502020942 | 3 | 282 | 1.6 | 6.4 | 0.00 | 0.00 | 0.00 | 64 | 1017.2 |
| 20260502020441 | 2 | 282 | 1.6 | 6.4 | 0.00 | 0.00 | 0.00 | 65 | 1017.1 |
| 20260502015940 | 3 | 303 | 1.6 | 12.9 | 0.00 | 0.00 | 0.00 | 64 | 1017.0 |
| 20260502015439 | 3 | 302 | 1.6 | 12.9 | 0.00 | 0.00 | 0.00 | 65 | 1016.9 |
| 20260502014937 | 3 | 356 | 1.6 | 9.7 | 0.00 | 0.00 | 0.00 | 63 | 1016.9 |
| 20260502014437 | 3 | 356 | 1.6 | 8.0 | 0.00 | 0.00 | 0.00 | 64 | 1016.8 |
| 20260502014015 | 3 | 356 | 1.6 | 8.0 | 0.00 | 0.00 | 0.00 | 64 | 1016.7 |
| 20260502014004 | 3 | 356 | 1.6 | 8.0 | 0.00 | 0.00 | 0.00 | 63 | 1016.8 |
| 20260502012939 | 3 | 356 | 1.6 | 6.4 | 0.00 | 0.00 | 0.00 | 65 | 1016.7 |
| 20260502012434 | 3 | 356 | 1.6 | 8.0 | 0.00 | 0.00 | 0.00 | 65 | 1016.7 |
| 20260502011934 | 3 | 301 | 1.6 | 8.0 | 0.00 | 0.00 | 0.00 | 64 | 1016.6 |
| 20260502011432 | 3 | 302 | 1.6 | 9.7 | 0.00 | 0.00 | 0.00 | 64 | 1016.5 |
| 20260502010932 | 3 | 302 | 4.8 | 14.5 | 0.00 | 0.00 | 0.00 | 61 | 1016.4 |
| 20260502010431 | 3 | 313 | 4.8 | 14.5 | 0.00 | 0.00 | 0.00 | 62 | 1016.1 |
| 20260502005932 | 3 | 34 | 6.4 | 9.7 | 0.00 | 0.00 | 0.00 | 60 | 1016.0 |
| 20260502005432 | 4 | 356 | 4.8 | 16.1 | 0.00 | 0.00 | 0.00 | 60 | 1016.4 |
| 20260502005214 | 4 | 313 | 4.8 | 16.1 | 0.00 | 0.00 | 0.00 | 61 | 1016.3 |
| 20260502004432 | 4 | 288 | 4.8 | 8.0 | 0.00 | 0.00 | 0.00 | 60 | 1016.4 |
| 20260502003931 | 4 | 351 | 4.8 | 8.0 | 0.00 | 0.00 | 0.00 | 60 | 1016.5 |
| 20260502003431 | 4 | 356 | 4.8 | 16.1 | 0.00 | 0.00 | 0.00 | 60 | 1016.4 |
| 20260502002930 | 4 | 356 | 4.8 | 16.1 | 0.00 | 0.00 | 0.00 | 59 | 1016.4 |
| 20260502002431 | 3 | 356 | 4.8 | 12.9 | 0.00 | 0.00 | 0.00 | 58 | 1016.4 |
| 20260502001930 | 4 | 356 | 4.8 | 12.9 | 0.00 | 0.00 | 0.00 | 56 | 1016.4 |
| 20260502001431 | 4 | 356 | 4.8 | 16.1 | 0.00 | 0.00 | 0.00 | 54 | 1016.2 |
| 20260502000933 | 4 | 356 | 6.4 | 16.1 | 0.00 | 0.00 | 0.00 | 53 | 1016.4 |
| 20260502000713 | 4 | 356 | 4.8 | 29.0 | 0.00 | 0.00 | 0.00 | 53 | 1016.2 |
| 20260501235926 | 5 | 274 | 4.8 | 29.0 | 0.00 | 0.00 | 0.00 | 53 | 1016.1 |
| 20260501235431 | 5 | 317 | 4.8 | 14.5 | 0.00 | 0.00 | 0.00 | 52 | 1016.2 |
| 20260501234920 | 5 | 244 | 6.4 | 20.9 | 0.00 | 0.00 | 0.00 | 53 | 1016.1 |
| 20260501234421 | 5 | 217 | 8.0 | 20.9 | 0.00 | 0.00 | 0.00 | 52 | 1016.0 |
| 20260501233923 | 5 | 188 | 8.0 | 29.0 | 0.00 | 0.00 | 0.00 | 53 | 1016.0 |
| 20260501233419 | 5 | 228 | 8.0 | 29.0 | 0.00 | 0.00 | 0.00 | 53 | 1016.0 |
| 20260501232918 | 6 | 327 | 6.4 | 19.3 | 0.00 | 0.00 | 0.00 | 55 | 1015.9 |
| 20260501232711 | 6 | 236 | 6.4 | 22.5 | 0.00 | 0.00 | 0.00 | 54 | 1015.9 |
| 20260501231919 | 6 | 271 | 6.4 | 22.5 | 0.00 | 0.00 | 0.00 | 54 | 1015.8 |
| 20260501231417 | 6 | 317 | 4.8 | 19.3 | 0.00 | 0.00 | 0.00 | 52 | 1015.6 |
| 20260501230917 | 6 | 319 | 6.4 | 19.3 | 0.00 | 0.00 | 0.00 | 51 | 1015.6 |
| 20260501230415 | 7 | 330 | 6.4 | 19.3 | 0.00 | 0.00 | 0.00 | 53 | 1015.5 |
| 20260501225916 | 7 | 277 | 8.0 | 20.9 | 0.00 | 0.00 | 0.00 | 50 | 1015.6 |
| 20260501225659 | 7 | 302 | 8.0 | 22.5 | 0.00 | 0.00 | 0.00 | 48 | 1015.5 |
| 20260501224913 | 7 | 351 | 8.0 | 22.5 | 0.00 | 0.00 | 0.00 | 47 | 1015.8 |
| 20260501224412 | 6 | 327 | 8.0 | 22.5 | 0.00 | 0.00 | 0.00 | 47 | 1015.6 |
| 20260501223915 | 6 | 9 | 8.0 | 29.0 | 0.00 | 0.00 | 0.00 | 49 | 1015.5 |
| 20260501223412 | 7 | 1 | 6.4 | 29.0 | 0.00 | 0.00 | 0.00 | 52 | 1015.6 |
| 20260501222911 | 7 | 254 | 6.4 | 22.5 | 0.00 | 0.00 | 0.00 | 52 | 1015.6 |
| 20260501222410 | 6 | 304 | 6.4 | 22.5 | 0.00 | 0.00 | 0.00 | 51 | 1015.5 |
| 20260501221909 | 7 | 238 | 8.0 | 35.4 | 0.00 | 0.00 | 0.00 | 53 | 1015.4 |
| 20260501221407 | 7 | 263 | 9.7 | 35.4 | 0.00 | 0.00 | 0.00 | 55 | 1015.5 |
| 20260501220902 | 7 | 239 | 8.0 | 25.7 | 0.00 | 0.00 | 0.00 | 53 | 1015.4 |
| 20260501220402 | 7 | 219 | 8.0 | 25.7 | 0.00 | 0.00 | 0.00 | 57 | 1015.3 |
| 20260501215902 | 7 | 288 | 8.0 | 25.7 | 0.00 | 0.00 | 0.00 | 55 | 1015.3 |
| 20260501215403 | 7 | 282 | 6.4 | 19.3 | 0.00 | 0.00 | 0.00 | 54 | 1015.4 |
| 20260501215150 | 7 | 302 | 6.4 | 20.9 | 0.00 | 0.00 | 0.00 | 52 | 1015.4 |
| 20260501214401 | 8 | 273 | 8.0 | 27.4 | 0.00 | 0.00 | 0.00 | 57 | 1015.3 |
| 20260501213902 | 8 | 351 | 8.0 | 27.4 | 0.00 | 0.00 | 0.00 | 53 | 1015.4 |
| 20260501213403 | 8 | 221 | 6.4 | 20.9 | 0.00 | 0.00 | 0.00 | 53 | 1015.3 |
| 20260501212904 | 8 | 244 | 8.0 | 29.0 | 0.00 | 0.00 | 0.00 | 53 | 1015.2 |
| 20260501212404 | 8 | 263 | 8.0 | 29.0 | 0.00 | 0.00 | 0.00 | 52 | 1015.2 |
| 20260501211902 | 8 | 268 | 8.0 | 20.9 | 0.00 | 0.00 | 0.00 | 51 | 1015.2 |
| 20260501211525 | 9 | 1 | 6.4 | 19.3 | 0.00 | 0.00 | 0.00 | 51 | 1015.0 |
| 20260501211504 | 8 | 338 | 8.0 | 25.7 | 0.00 | 0.00 | 0.00 | 49 | 1015.0 |
| 20260501211228 | 8 | 239 | 8.0 | 25.7 | 0.00 | 0.00 | 0.00 | 49 | 1015.0 |
| 20260501205904 | 8 | 217 | 8.0 | 25.7 | 0.00 | 0.00 | 0.00 | 52 | 1015.0 |
| 20260501205403 | 7 | 344 | 6.4 | 25.7 | 0.00 | 0.00 | 0.00 | 52 | 1015.1 |
| 20260501204902 | 7 | 283 | 6.4 | 22.5 | 0.00 | 0.00 | 0.00 | 52 | 1015.1 |
| 20260501204402 | 8 | 281 | 6.4 | 22.5 | 0.00 | 0.00 | 0.00 | 51 | 1015.0 |
| 20260501203903 | 7 | 302 | 8.0 | 20.9 | 0.00 | 0.00 | 0.00 | 54 | 1015.1 |
| 20260501203403 | 7 | 299 | 8.0 | 20.9 | 0.00 | 0.00 | 0.00 | 52 | 1015.0 |
| 20260501202903 | 7 | 305 | 8.0 | 22.5 | 0.00 | 0.00 | 0.00 | 55 | 1015.1 |
| 20260501202402 | 7 | 246 | 8.0 | 29.0 | 0.00 | 0.00 | 0.00 | 57 | 1015.0 |
| 20260501202153 | 7 | 5 | 8.0 | 29.0 | 0.00 | 0.00 | 0.00 | 58 | 1015.1 |
| 20260501201403 | 8 | 278 | 6.4 | 19.3 | 0.00 | 0.00 | 0.00 | 60 | 1015.1 |
| 20260501200903 | 7 | 234 | 6.4 | 19.3 | 0.00 | 0.00 | 0.00 | 63 | 1015.0 |
| 20260501200404 | 7 | 250 | 6.4 | 19.3 | 0.00 | 0.00 | 0.00 | 61 | 1015.1 |
| 20260501195902 | 7 | 246 | 4.8 | 14.5 | 0.00 | 0.00 | 0.00 | 62 | 1015.0 |
| 20260501195402 | 7 | 234 | 6.4 | 20.9 | 0.00 | 0.00 | 0.00 | 62 | 1015.0 |
| 20260501195158 | 7 | 1 | 6.4 | 20.9 | 0.00 | 0.00 | 0.00 | 61 | 1015.0 |
| 20260501194402 | 7 | 343 | 4.8 | 20.9 | 0.00 | 0.00 | 0.00 | 61 | 1015.0 |
| 20260501193902 | 7 | 234 | 4.8 | 20.9 | 0.00 | 0.00 | 0.00 | 62 | 1015.0 |
| 20260501193402 | 7 | 273 | 4.8 | 9.7 | 0.00 | 0.00 | 0.00 | 65 | 1015.1 |
| 20260501193148 | 6 | 308 | 6.4 | 20.9 | 0.00 | 0.00 | 0.00 | 65 | 1015.1 |
| 20260501192401 | 6 | 334 | 6.4 | 20.9 | 0.00 | 0.00 | 0.00 | 64 | 1015.1 |
| 20260501191901 | 6 | 356 | 6.4 | 16.1 | 0.00 | 0.00 | 0.00 | 64 | 1015.0 |
| 20260501191401 | 6 | 311 | 6.4 | 22.5 | 0.00 | 0.00 | 0.00 | 63 | 1015.1 |
| 20260501190902 | 6 | 291 | 8.0 | 22.5 | 0.00 | 0.00 | 0.00 | 61 | 1014.9 |
| 20260501190445 | 7 | 262 | 8.0 | 19.3 | 0.00 | 0.00 | 0.00 | 60 | 1014.7 |
| 20260501190432 | 7 | 274 | 8.0 | 19.3 | 0.00 | 0.00 | 0.00 | 60 | 1014.9 |
| 20260501185651 | 7 | 295 | 8.0 | 33.8 | 0.00 | 0.00 | 0.00 | 61 | 1014.8 |
| 20260501185152 | 7 | 97 | 6.4 | 33.8 | 0.00 | 0.00 | 0.00 | 59 | 1014.8 |
| 20260501184654 | 7 | 307 | 6.4 | 16.1 | 0.00 | 0.00 | 0.00 | 62 | 1014.8 |
| 20260501183902 | 7 | 351 | 4.8 | 16.1 | 0.00 | 0.00 | 0.00 | 62 | 1014.7 |
| 20260501183402 | 6 | 7 | 4.8 | 12.9 | 0.00 | 0.00 | 0.00 | 61 | 1014.7 |
| 20260501182901 | 6 | 222 | 4.8 | 8.0 | 0.00 | 0.00 | 0.00 | 64 | 1014.7 |
| 20260501182401 | 6 | 316 | 6.4 | 19.3 | 0.00 | 0.00 | 0.00 | 63 | 1014.7 |
| 20260501181906 | 6 | 262 | 4.8 | 19.3 | 0.00 | 0.00 | 0.00 | 64 | 1014.7 |
| 20260501181653 | 6 | 270 | 4.8 | 8.0 | 0.00 | 0.00 | 0.00 | 64 | 1014.7 |
| 20260501180901 | 6 | 278 | 4.8 | 16.1 | 0.00 | 0.00 | 0.00 | 62 | 1014.7 |
| 20260501180405 | 6 | 340 | 6.4 | 16.1 | 0.00 | 0.00 | 0.00 | 62 | 1014.6 |
| 20260501175902 | 7 | 262 | 4.8 | 12.9 | 0.00 | 0.00 | 0.00 | 62 | 1014.6 |
| 20260501175403 | 7 | 255 | 4.8 | 16.1 | 0.00 | 0.00 | 0.00 | 62 | 1014.6 |
| 20260501175132 | 7 | 208 | 6.4 | 19.3 | 0.00 | 0.00 | 0.00 | 59 | 1014.6 |
| 20260501174402 | 7 | 303 | 6.4 | 20.9 | 0.00 | 0.00 | 0.00 | 62 | 1014.6 |
| 20260501173902 | 8 | 229 | 6.4 | 20.9 | 0.00 | 0.00 | 0.00 | 63 | 1014.7 |
| 20260501173400 | 8 | 300 | 6.4 | 22.5 | 0.00 | 0.00 | 0.00 | 64 | 1014.7 |
| 20260501172901 | 6 | 340 | 6.4 | 22.5 | 0.00 | 0.00 | 0.00 | 63 | 1014.7 |
| 20260501172622 | 6 | 330 | 6.4 | 20.9 | 0.00 | 0.00 | 0.00 | 62 | 1014.7 |
| 20260501171900 | 6 | 321 | 6.4 | 14.5 | 0.00 | 0.00 | 0.00 | 63 | 1014.8 |
| 20260501171402 | 6 | 317 | 8.0 | 22.5 | 0.00 | 0.00 | 0.00 | 64 | 1014.7 |
| 20260501170903 | 6 | 263 | 8.0 | 22.5 | 0.00 | 0.00 | 0.00 | 63 | 1014.7 |
| 20260501170401 | 7 | 351 | 6.4 | 19.3 | 0.00 | 0.00 | 0.00 | 64 | 1014.8 |
| 20260501165901 | 6 | 342 | 6.4 | 19.3 | 0.00 | 0.00 | 0.00 | 68 | 1014.8 |
| 20260501165401 | 6 | 325 | 4.8 | 14.5 | 0.00 | 0.00 | 0.00 | 66 | 1014.8 |
| 20260501164902 | 6 | 6 | 6.4 | 20.9 | 0.00 | 0.00 | 0.00 | 67 | 1014.8 |
| 20260501164401 | 6 | 302 | 6.4 | 20.9 | 0.00 | 0.00 | 0.00 | 66 | 1014.8 |
| 20260501163901 | 5 | 287 | 4.8 | 19.3 | 0.00 | 0.00 | 0.00 | 67 | 1014.9 |
| 20260501163400 | 5 | 311 | 4.8 | 19.3 | 0.00 | 0.00 | 0.00 | 66 | 1014.8 |
| 20260501163156 | 5 | 1 | 4.8 | 16.1 | 0.00 | 0.00 | 0.00 | 66 | 1014.8 |
| 20260501162403 | 5 | 1 | 6.4 | 12.9 | 0.00 | 0.00 | 0.00 | 69 | 1014.8 |
| 20260501161902 | 5 | 288 | 6.4 | 12.9 | 0.00 | 0.00 | 0.00 | 68 | 1014.9 |
| 20260501161404 | 5 | 253 | 6.4 | 14.5 | 0.00 | 0.00 | 0.00 | 69 | 1014.9 |
| 20260501161151 | 5 | 351 | 6.4 | 14.5 | 0.00 | 0.00 | 0.00 | 66 | 1014.9 |
| 20260501160403 | 5 | 346 | 4.8 | 9.7 | 0.00 | 0.00 | 0.00 | 63 | 1014.8 |
| 20260501155902 | 5 | 305 | 6.4 | 16.1 | 0.00 | 0.00 | 0.00 | 62 | 1014.8 |
| 20260501155402 | 6 | 282 | 8.0 | 16.1 | 0.00 | 0.00 | 0.00 | 61 | 1014.8 |
| 20260501155142 | 6 | 24 | 8.0 | 20.9 | 0.00 | 0.00 | 0.00 | 62 | 1014.8 |
| 20260501154913 | 6 | 271 | 8.0 | 20.9 | 0.00 | 0.00 | 0.00 | 64 | 1014.8 |
| 20260501153902 | 6 | 32 | 6.4 | 19.3 | 0.00 | 0.00 | 0.00 | 61 | 1014.8 |
| 20260501153404 | 6 | 330 | 6.4 | 19.3 | 0.00 | 0.00 | 0.00 | 64 | 1014.7 |
| 20260501152902 | 6 | 334 | 6.4 | 14.5 | 0.00 | 0.00 | 0.00 | 64 | 1014.7 |
| 20260501152405 | 6 | 326 | 4.8 | 12.9 | 0.00 | 0.00 | 0.00 | 67 | 1014.8 |
| 20260501151902 | 5 | 66 | 6.4 | 14.5 | 0.00 | 0.00 | 0.00 | 65 | 1014.7 |
| 20260501151704 | 5 | 310 | 8.0 | 16.1 | 0.00 | 0.00 | 0.00 | 67 | 1014.7 |
| 20260501151234 | 6 | 351 | 4.8 | 16.1 | 0.00 | 0.00 | 0.00 | 68 | 1014.6 |
| 20260501150932 | 6 | 351 | 4.8 | 16.1 | 0.00 | 0.00 | 0.00 | 66 | 1014.6 |
| 20260501145904 | 5 | 264 | 6.4 | 16.1 | 0.00 | 0.00 | 0.00 | 67 | 1014.7 |
| 20260501145404 | 5 | 295 | 6.4 | 14.5 | 0.00 | 0.00 | 0.00 | 68 | 1014.7 |
| 20260501145206 | 5 | 345 | 4.8 | 16.1 | 0.00 | 0.00 | 0.00 | 68 | 1014.6 |
| 20260501145159 | 5 | 334 | 4.8 | 9.7 | 0.00 | 0.00 | 0.00 | 68 | 1014.6 |
| 20260501144428 | 5 | 342 | 6.4 | 16.1 | 0.00 | 0.00 | 0.00 | 70 | 1014.6 |
| 20260501143404 | 5 | 343 | 4.8 | 9.7 | 0.00 | 0.00 | 0.00 | 69 | 1014.5 |
| 20260501143131 | 5 | 31 | 1.6 | 8.0 | 0.00 | 0.00 | 0.00 | 69 | 1014.5 |
| 20260501142404 | 5 | 23 | 4.8 | 12.9 | 0.00 | 0.00 | 0.00 | 70 | 1014.5 |
| 20260501141903 | 5 | 304 | 6.4 | 12.9 | 0.00 | 0.00 | 0.00 | 69 | 1014.5 |